Probability
0 0 0 0 0 0 0 0 0 0 0 0 0 0 0 0 0 0 0 0 0 6 42 81 81 74 81 74 77 77 77 81 84 74 61 52 35 32 26 16 16 19 10 6 6 6 0 0 0
0 0 0 0 0 0 0 0 0 0 0 0 0 0 0 0 0 0 0 0 0 10 35 65 84 84 81 77 77 74 61 61 77 71 68 52 39 32 26 32 26 19 10 10 3 3 0 0 0
0 0 0 0 0 0 0 0 0 0 0 0 0 0 0 0 0 0 0 3 6 16 23 55 81 84 84 77 81 77 71 61 77 81 71 52 45 42 35 26 26 19 13 13 3 0 0 0 0
0 0 0 0 0 0 0 0 0 0 0 0 0 0 0 0 0 0 0 6 6 13 16 48 77 81 81 81 81 81 77 77 81 84 74 55 48 35 32 42 32 19 10 10 0 0 0 0 0
0 0 0 0 0 0 0 0 0 0 0 0 0 0 0 0 0 0 3 3 3 13 16 42 74 74 77 77 77 81 81 87 81 74 68 65 52 35 39 39 23 10 6 3 0 0 0 0 0
0 0 0 0 0 0 0 0 0 0 0 0 0 0 0 0 0 0 3 3 3 13 16 29 68 68 71 77 81 87 81 87 77 74 71 71 55 48 35 32 19 13 6 0 0 0 0 0 0
0 0 0 0 0 0 0 0 0 0 0 0 0 0 0 0 0 0 3 3 3 13 13 23 29 32 55 68 71 90 87 90 87 87 74 58 48 48 42 32 16 13 3 0 0 0 0 0 0
0 0 0 0 0 0 0 0 0 0 0 0 0 0 0 0 0 0 0 0 6 3 6 10 16 13 19 19 48 52 65 71 71 65 42 16 13 16 16 6 13 6 0 0 0 0 0 0 0
0 0 0 0 0 0 0 0 0 0 0 0 0 0 0 0 0 0 0 0 3 3 3 3 3 0 0 3 6 16 13 35 35 29 19 0 0 0 0 0 0 0 0 0 0 0 0 0 0
0 0 0 0 0 0 0 0 0 0 0 0 0 0 0 0 0 0 0 0 0 0 3 0 0 0 0 0 0 3 0 0 3 0 0 0 0 0 0 0 0 0 0 0 0 0 0 0 0
0 0 0 0 0 0 0 0 0 0 0 0 0 0 0 0 0 0 0 0 0 0 0 0 0 0 0 0 0 0 0 0 0 0 0 0 0 0 0 0 0 0 0 0 0 0 0 0 0
0 0 0 0 0 0 0 0 0 0 0 0 0 0 0 0 0 0 0 0 0 0 0 0 0 0 0 0 0 0 0 0 0 0 0 0 0 0 0 0 0 0 0 0 0 0 0 0 0
0 0 0 0 0 0 0 0 0 0 0 0 0 0 0 0 0 0 0 0 0 0 0 0 0 0 0 0 0 0 0 0 0 0 0 0 0 0 0 0 0 0 0 0 0 0 0 0 0
0 0 0 0 0 0 0 0 0 0 0 0 0 0 0 0 0 0 0 0 0 0 0 0 0 0 0 0 0 0 0 0 0 0 0 0 0 0 0 0 0 0 0 0 0 0 0 0 0
0 0 0 0 0 0 0 0 0 0 0 0 0 0 0 0 0 0 0 0 0 0 0 0 0 0 0 0 0 0 0 0 0 0 0 0 0 0 0 0 0 0 0 0 0 0 0 0 0
0 0 0 0 0 0 0 0 0 0 0 0 0 0 0 0 0 0 0 0 0 0 0 0 0 0 0 0 0 0 0 0 0 0 0 0 0 0 0 0 0 0 0 0 0 0 0 0 0
0 0 0 0 0 0 0 0 0 0 0 0 0 0 0 0 0 0 0 0 0 0 0 0 0 0 0 0 0 0 0 0 0 0 0 0 0 0 0 0 0 0 0 0 0 0 0 0 0
0 0 0 0 0 0 0 0 0 0 0 0 0 0 0 0 0 0 0 0 0 0 0 0 0 0 0 0 0 0 0 0 0 0 0 0 0 0 0 0 0 0 0 0 0 0 0 0 0
0 0 0 0 0 0 0 0 0 0 0 0 0 0 0 0 0 0 0 0 0 0 0 0 0 0 0 0 0 0 0 0 0 0 0 0 0 0 0 0 0 0 0 0 0 0 0 0 0
0 0 0 0 0 0 0 0 0 0 0 0 0 0 0 0 0 0 0 0 0 0 0 0 0 0 0 0 0 0 0 0 0 0 0 0 0 0 0 0 0 0 0 0 0 0 0 0 0
0 0 0 0 0 0 0 0 0 0 0 0 0 0 0 0 0 0 0 0 0 0 0 0 0 0 0 0 0 0 0 0 0 0 0 0 0 0 0 0 0 0 0 0 0 0 0 0 0
0 0 0 0 0 0 0 0 0 0 0 0 0 0 0 0 0 0 0 0 0 0 0 0 0 0 0 0 0 0 0 0 0 0 0 0 0 0 0 0 0 0 0 0 0 0 0 0 0
0 0 0 0 0 0 0 0 0 0 0 0 0 0 0 0 0 0 0 0 0 0 0 0 0 0 0 0 0 0 0 0 0 0 0 0 0 0 0 0 0 0 0 0 0 0 0 0 0
0 0 0 0 0 0 0 0 0 0 0 0 0 0 0 0 0 0 0 0 0 0 0 0 0 0 0 0 0 0 0 0 0 0 0 0 0 0 0 0 0 0 0 0 0 0 0 0 0
0 0 0 0 0 0 0 0 0 0 0 0 0 0 0 0 0 0 0 0 0 0 0 0 0 0 0 0 0 0 0 0 0 0 0 0 0 0 0 0 0 0 0 0 0 0 0 0 0
0 0 0 0 0 0 0 0 0 0 0 0 0 0 0 0 0 0 0 0 0 0 0 0 0 0 0 0 0 0 0 0 0 0 0 0 0 0 0 0 0 0 0 0 0 0 0 0 0
0 0 0 0 0 0 0 0 0 0 0 0 0 0 0 0 0 0 0 0 0 0 0 0 0 0 0 0 0 0 0 0 0 0 0 0 0 0 0 0 0 0 0 0 0 0 0 0 0
0 0 0 0 0 0 0 0 0 0 0 0 0 0 0 0 0 0 0 0 0 0 0 0 0 0 0 0 0 0 0 0 0 0 0 0 0 0 0 0 0 0 0 0 0 0 0 0 0
0 0 0 0 0 0 0 0 0 0 0 0 0 0 0 0 0 0 0 0 0 0 0 0 0 0 0 0 0 0 0 0 0 0 0 0 0 0 0 0 0 0 0 0 0 0 0 0 0
0 0 0 0 0 0 0 0 0 0 0 0 0 0 0 0 0 0 0 0 0 0 0 0 0 0 0 0 0 0 0 0 0 0 0 0 0 0 0 0 0 0 0 0 0 0 0 0 0
Height
5782 5784 5787 5789 5792 5794 5797 5802 5807 5810 5812 5814 5816 5818 5822 5825 5828 5833 5834 5836 5837 5839 5841 5843 5845 5847 5849 5850 5853 5855 5857 5859 5861 5863 5864 5866 5867 5868 5869 5870 5871 5872 5873 5874 5874 5875 5875 5875 5876
5773 5776 5778 5780 5782 5786 5791 5796 5799 5801 5804 5806 5809 5811 5814 5818 5821 5825 5828 5830 5833 5835 5837 5839 5841 5843 5844 5846 5848 5851 5853 5855 5857 5859 5861 5863 5864 5866 5867 5868 5869 5870 5871 5872 5873 5873 5874 5874 5875
5764 5767 5770 5772 5774 5780 5784 5787 5790 5792 5795 5798 5801 5804 5807 5811 5815 5818 5822 5824 5827 5830 5832 5834 5836 5838 5840 5842 5844 5846 5848 5851 5853 5855 5858 5860 5861 5863 5864 5865 5866 5868 5869 5870 5871 5871 5872 5873 5873
5756 5758 5760 5764 5768 5772 5774 5777 5780 5782 5785 5789 5792 5796 5799 5804 5808 5811 5815 5818 5821 5824 5827 5829 5831 5833 5835 5837 5839 5842 5844 5847 5849 5851 5853 5856 5858 5859 5861 5862 5864 5865 5866 5868 5868 5869 5870 5870 5871
5747 5749 5752 5755 5759 5763 5765 5766 5770 5773 5776 5780 5783 5787 5791 5796 5800 5803 5808 5811 5814 5817 5820 5823 5826 5828 5830 5833 5835 5837 5840 5842 5844 5847 5849 5851 5854 5856 5857 5859 5860 5862 5863 5865 5866 5866 5867 5868 5869
5738 5740 5744 5747 5751 5753 5755 5757 5759 5763 5767 5771 5774 5778 5783 5787 5791 5795 5799 5803 5807 5811 5814 5817 5820 5822 5825 5827 5830 5832 5834 5837 5839 5842 5844 5847 5849 5851 5853 5855 5857 5858 5860 5862 5863 5864 5864 5865 5866
5730 5732 5735 5739 5741 5743 5745 5747 5750 5754 5757 5761 5764 5769 5774 5778 5782 5786 5791 5795 5799 5803 5807 5810 5813 5816 5819 5821 5824 5826 5829 5831 5834 5837 5839 5842 5844 5847 5849 5851 5853 5855 5856 5858 5859 5860 5861 5862 5863
5720 5723 5726 5729 5731 5734 5735 5737 5740 5744 5748 5751 5754 5759 5764 5768 5772 5776 5781 5786 5790 5795 5799 5802 5806 5809 5812 5815 5818 5820 5823 5826 5828 5831 5834 5836 5839 5841 5844 5846 5849 5850 5852 5854 5855 5856 5857 5858 5859
5710 5715 5718 5720 5721 5723 5725 5728 5731 5734 5738 5741 5745 5749 5753 5758 5762 5766 5771 5776 5781 5786 5790 5794 5797 5801 5804 5808 5811 5814 5817 5819 5822 5825 5828 5831 5833 5836 5838 5841 5844 5846 5848 5849 5851 5852 5853 5854 5855
5702 5705 5708 5709 5711 5713 5715 5718 5721 5724 5728 5732 5734 5738 5742 5747 5751 5756 5761 5766 5771 5776 5780 5784 5789 5793 5796 5800 5803 5807 5810 5813 5816 5818 5821 5824 5827 5830 5833 5835 5838 5840 5843 5845 5846 5848 5849 5850 5851
5692 5696 5698 5698 5700 5703 5705 5708 5710 5714 5719 5721 5724 5727 5730 5735 5740 5745 5750 5755 5760 5765 5770 5774 5779 5783 5788 5792 5795 5799 5802 5806 5809 5812 5814 5818 5821 5824 5827 5829 5832 5835 5837 5839 5841 5843 5844 5845 5846
5683 5686 5687 5688 5690 5692 5695 5698 5701 5704 5708 5709 5712 5716 5720 5724 5728 5733 5738 5744 5749 5754 5759 5764 5768 5773 5778 5783 5787 5791 5795 5798 5801 5805 5807 5811 5814 5817 5820 5823 5826 5829 5831 5833 5835 5837 5838 5840 5841
5674 5676 5677 5678 5680 5682 5684 5687 5690 5694 5695 5697 5701 5705 5709 5713 5717 5721 5726 5731 5737 5742 5747 5752 5757 5763 5768 5773 5778 5782 5786 5790 5794 5797 5800 5803 5807 5810 5813 5816 5819 5822 5824 5827 5829 5831 5832 5834 5835
5665 5667 5668 5669 5670 5672 5675 5677 5680 5684 5683 5686 5689 5693 5697 5701 5705 5709 5713 5719 5724 5729 5735 5740 5746 5751 5757 5763 5768 5773 5777 5781 5785 5789 5793 5796 5799 5802 5806 5809 5812 5815 5817 5820 5822 5824 5826 5827 5829
5657 5660 5661 5662 5662 5664 5666 5670 5670 5672 5673 5676 5679 5682 5685 5689 5692 5696 5700 5706 5711 5716 5722 5727 5733 5739 5746 5752 5758 5763 5768 5772 5777 5781 5784 5788 5791 5794 5798 5801 5804 5807 5810 5812 5815 5817 5819 5821 5822
5651 5653 5654 5655 5655 5656 5659 5662 5661 5661 5663 5666 5668 5670 5673 5676 5680 5684 5688 5692 5698 5703 5709 5715 5721 5727 5734 5741 5747 5752 5758 5763 5767 5772 5776 5779 5783 5787 5790 5793 5797 5799 5802 5805 5807 5809 5811 5813 5815
5645 5647 5648 5649 5649 5649 5651 5654 5653 5652 5654 5656 5658 5660 5662 5665 5668 5671 5675 5680 5685 5690 5696 5702 5709 5715 5722 5729 5735 5742 5747 5753 5758 5763 5767 5771 5775 5778 5782 5785 5789 5791 5794 5797 5799 5801 5803 5805 5807
5640 5641 5642 5642 5642 5643 5644 5645 5645 5645 5645 5647 5648 5650 5652 5655 5657 5659 5663 5667 5673 5678 5684 5690 5697 5704 5710 5717 5724 5731 5737 5742 5748 5754 5759 5763 5766 5770 5773 5777 5780 5783 5786 5789 5791 5793 5795 5797 5798
5635 5636 5636 5637 5637 5637 5637 5638 5638 5637 5638 5639 5641 5642 5644 5645 5647 5649 5652 5656 5661 5666 5673 5679 5686 5692 5699 5707 5714 5721 5727 5733 5739 5744 5749 5753 5758 5762 5765 5768 5772 5775 5777 5780 5783 5785 5787 5789 5790
5632 5632 5633 5633 5632 5632 5632 5633 5633 5632 5632 5633 5634 5635 5636 5637 5638 5640 5643 5647 5651 5656 5662 5668 5674 5681 5688 5696 5703 5710 5717 5723 5729 5734 5739 5744 5748 5752 5756 5760 5763 5766 5769 5771 5774 5776 5778 5780 5781
5629 5630 5630 5630 5629 5629 5629 5630 5629 5628 5627 5628 5628 5628 5629 5630 5631 5633 5635 5638 5642 5647 5652 5658 5664 5670 5677 5684 5692 5699 5706 5712 5719 5724 5730 5735 5739 5743 5747 5751 5754 5757 5760 5763 5765 5767 5769 5771 5772
5627 5627 5628 5627 5627 5627 5627 5627 5627 5626 5625 5625 5625 5624 5624 5624 5625 5626 5628 5631 5634 5639 5643 5648 5654 5660 5666 5673 5680 5688 5695 5703 5710 5715 5720 5725 5730 5734 5738 5742 5745 5748 5751 5754 5756 5758 5760 5761 5762
5626 5626 5626 5626 5626 5626 5626 5626 5627 5624 5624 5623 5622 5621 5620 5620 5621 5622 5623 5625 5628 5632 5636 5640 5646 5651 5658 5664 5671 5679 5686 5693 5700 5705 5710 5716 5721 5725 5729 5733 5736 5739 5743 5745 5747 5748 5750 5751 5753
5625 5626 5626 5626 5626 5626 5626 5626 5626 5624 5623 5622 5621 5619 5619 5618 5618 5618 5619 5621 5624 5627 5631 5635 5640 5645 5651 5658 5664 5670 5677 5684 5690 5696 5702 5707 5712 5717 5721 5725 5728 5731 5733 5736 5737 5739 5740 5742 5742
5626 5627 5627 5626 5626 5626 5626 5626 5626 5624 5623 5621 5620 5620 5619 5618 5617 5616 5617 5619 5621 5624 5628 5632 5636 5641 5646 5651 5657 5663 5670 5676 5682 5688 5694 5699 5704 5709 5713 5716 5719 5721 5724 5726 5728 5729 5731 5731 5732
5626 5627 5628 5628 5627 5627 5627 5626 5626 5624 5623 5622 5621 5620 5619 5618 5617 5616 5616 5618 5620 5623 5627 5630 5634 5638 5642 5647 5652 5658 5664 5670 5676 5681 5686 5691 5696 5701 5704 5707 5710 5713 5715 5716 5718 5720 5721 5721 5721
5627 5627 5628 5628 5628 5628 5628 5628 5628 5626 5625 5624 5622 5621 5620 5619 5618 5617 5617 5619 5621 5624 5626 5629 5633 5636 5640 5644 5648 5654 5659 5664 5670 5675 5679 5683 5688 5692 5695 5698 5701 5703 5705 5707 5708 5710 5710 5711 5711
5629 5629 5629 5630 5629 5630 5630 5630 5629 5628 5627 5625 5624 5622 5621 5620 5620 5620 5620 5621 5622 5624 5627 5629 5632 5635 5638 5642 5646 5651 5655 5660 5664 5669 5673 5677 5680 5684 5687 5689 5692 5694 5696 5698 5698 5699 5699 5700 5700
5630 5631 5631 5631 5631 5632 5631 5634 5631 5630 5628 5627 5626 5624 5623 5623 5622 5622 5622 5622 5623 5625 5627 5629 5632 5634 5638 5641 5644 5648 5652 5655 5659 5663 5666 5670 5673 5676 5678 5681 5683 5685 5686 5687 5688 5688 5688 5688 5688
5632 5632 5633 5634 5634 5633 5633 5636 5632 5632 5630 5629 5628 5627 5626 5625 5625 5624 5625 5625 5626 5627 5628 5630 5632 5634 5637 5639 5642 5645 5648 5651 5654 5657 5660 5663 5666 5668 5670 5672 5674 5675 5676 5676 5677 5676 5676 5675 5675
Wind_Speed
42 43 44 44 46 47 45 42 38 36 37 37 37 37 35 34 33 32 30 28 27 26 25 25 25 25 25 24 24 25 25 23 21 19 17 15 14 13 12 11 10 9 8 8 8 7 7 7 6
43 44 45 46 48 47 45 42 40 40 40 40 40 39 38 37 36 34 32 30 29 28 26 26 26 26 25 25 25 25 25 25 24 22 20 18 17 15 14 13 12 11 10 9 9 9 9 8 7
42 43 45 47 48 46 44 43 42 43 43 42 42 42 41 40 38 36 35 33 32 30 29 27 27 27 27 26 26 26 26 26 25 25 23 21 19 18 16 15 14 13 12 11 11 10 10 10 9
41 42 45 47 46 44 44 44 44 44 44 44 44 44 43 42 40 39 37 36 35 33 32 30 29 29 28 28 27 27 27 27 27 26 26 24 22 21 19 18 16 15 14 13 12 12 12 11 11
41 42 43 44 43 43 43 45 45 45 45 45 45 45 45 44 43 41 40 39 37 36 34 33 31 30 30 30 29 29 29 29 29 28 28 27 25 23 22 20 19 17 16 15 14 14 14 13 12
42 42 43 43 42 42 43 45 46 45 45 46 47 47 46 45 45 44 43 41 40 39 37 36 34 33 32 32 31 30 30 30 30 30 29 28 28 26 24 23 21 19 18 17 16 16 16 15 14
43 43 43 42 42 43 43 45 46 45 46 47 48 48 47 47 47 46 45 44 43 42 40 38 37 36 35 34 33 31 31 31 32 32 31 30 29 28 27 25 23 22 20 19 18 18 18 17 16
44 44 43 42 43 43 44 45 46 47 47 48 49 49 48 48 49 49 48 47 45 44 43 42 40 39 37 35 35 33 32 32 33 33 33 32 31 30 30 28 26 24 23 21 20 19 20 19 18
43 44 43 43 44 44 44 45 46 47 48 49 50 50 49 50 51 51 50 49 48 47 46 44 43 42 40 39 37 36 35 34 33 34 35 34 33 32 32 30 29 26 25 24 22 22 22 21 20
43 43 43 44 45 45 44 45 46 47 48 49 51 52 51 51 52 52 52 51 51 49 48 47 46 45 43 42 41 39 38 37 36 36 37 37 36 35 34 33 31 29 27 26 25 24 24 23 23
43 43 43 45 45 46 46 46 47 48 48 50 52 53 53 53 54 54 54 53 53 52 51 50 49 47 46 45 43 42 40 39 38 37 38 38 38 36 36 34 33 31 30 29 28 26 26 25 25
42 43 44 45 46 46 47 47 47 48 47 50 52 53 54 54 54 55 56 55 55 54 53 52 51 50 48 47 46 44 42 41 41 40 39 39 39 38 37 36 35 34 33 31 30 28 28 28 27
41 41 42 43 44 45 46 47 47 46 49 50 51 52 53 53 54 55 56 57 57 56 56 55 54 53 51 49 48 46 45 45 43 42 41 40 40 40 39 39 38 37 35 34 32 31 30 29 28
38 38 39 40 42 43 44 44 46 45 47 48 49 50 52 53 54 55 56 57 58 58 57 56 55 55 54 52 50 49 48 46 44 43 42 41 40 40 40 40 40 39 38 36 35 33 32 31 31
34 35 36 37 38 38 40 40 42 44 46 47 48 49 50 52 53 54 54 56 57 58 58 57 57 56 55 54 52 50 50 49 46 45 44 43 41 41 41 41 41 41 40 39 38 36 35 34 33
32 32 33 34 35 35 37 36 39 41 42 43 45 47 49 50 52 53 54 54 55 57 58 58 58 57 56 55 53 52 52 51 49 47 45 43 43 42 42 42 42 42 41 41 39 38 37 36 36
28 28 29 31 32 33 35 34 36 37 38 39 40 42 44 46 49 51 53 53 53 54 56 57 57 57 56 56 54 54 52 52 50 49 46 45 44 44 44 43 43 43 43 42 41 40 39 38 37
24 25 27 28 29 30 31 30 32 33 35 35 36 38 40 41 43 47 50 51 51 53 54 55 56 56 56 55 54 53 51 51 50 50 48 47 46 45 45 45 44 43 43 43 43 41 40 39 39
20 21 22 24 24 25 26 26 26 27 30 31 32 33 35 37 39 42 45 47 49 51 52 53 54 54 55 55 53 51 50 50 50 50 50 49 48 47 46 45 44 43 43 43 44 43 42 42 42
17 17 18 18 20 21 21 21 22 23 25 26 27 29 31 33 35 37 40 42 44 47 49 51 52 53 54 55 54 53 52 51 50 51 50 49 48 46 45 44 44 43 44 44 44 44 44 44 44
13 14 14 14 15 15 15 15 16 18 19 20 22 24 26 27 29 32 34 36 39 41 45 48 50 51 52 54 54 55 53 53 52 52 50 49 49 48 47 45 44 44 45 45 45 46 46 47 47
10 11 10 10 10 10 11 10 11 11 13 15 16 18 19 21 23 25 28 30 32 34 38 42 44 47 49 51 52 52 51 51 51 51 50 50 51 50 49 47 46 45 45 46 46 46 47 47 47
7 7 7 6 6 7 7 6 5 7 8 10 11 12 14 16 17 20 22 24 26 28 30 33 36 39 43 46 48 48 49 49 49 50 50 50 50 50 49 47 47 47 46 45 46 46 45 46 47
4 4 4 4 4 4 4 3 2 3 3 4 6 7 8 9 11 14 18 20 21 22 24 26 30 34 37 41 44 45 45 46 47 48 49 47 48 48 47 47 46 45 45 45 44 44 45 45 45
3 3 2 2 2 2 2 1 1 0 1 1 1 3 4 4 4 7 12 16 18 19 21 23 24 27 31 34 37 38 40 41 42 43 43 43 43 43 43 43 43 43 43 44 44 44 45 44 45
3 2 2 2 3 4 3 3 3 3 3 2 1 1 1 1 2 5 8 11 14 15 16 18 18 20 24 27 30 31 32 34 35 37 38 41 41 41 42 43 44 44 44 45 43 43 44 44 45
3 2 2 3 4 4 4 4 4 4 4 3 3 2 2 3 4 6 7 8 10 11 13 14 15 16 18 20 23 25 26 28 30 32 35 37 38 39 40 40 41 42 43 43 43 44 45 46 46
2 2 3 3 4 4 5 4 5 5 5 4 4 4 4 5 6 6 7 7 7 9 10 11 12 12 13 15 17 19 21 23 25 28 30 32 33 35 36 37 38 39 41 43 44 45 46 46 48
3 3 4 5 5 5 5 5 5 5 6 5 5 6 7 8 7 7 7 7 7 8 7 8 9 10 10 10 13 15 17 19 22 24 26 28 30 32 33 35 36 37 39 41 42 44 46 48 50
4 4 5 5 5 4 4 5 5 5 5 5 5 7 7 8 8 8 8 7 7 6 6 7 8 9 10 10 12 14 16 18 20 22 24 26 28 30 32 33 34 36 38 41 44 45 47 49 50
Wind_Direction
254 253 252 251 251 251 252 253 253 250 249 247 246 246 246 247 247 249 250 250 250 250 250 250 250 248 247 247 246 246 246 245 244 245 245 246 248 251 255 260 265 269 273 277 280 282 281 279 276
254 253 252 252 252 253 254 254 253 251 249 248 247 246 245 245 246 247 249 250 250 250 250 250 250 248 247 248 246 245 246 245 245 245 245 246 247 249 251 255 261 265 268 270 273 274 274 274 274
255 253 253 252 253 254 254 253 252 251 249 248 247 246 245 244 245 245 247 248 249 249 249 250 250 248 247 247 247 246 245 245 245 245 245 246 247 248 249 252 256 260 262 265 268 269 270 269 270
255 254 254 254 254 254 254 253 251 250 249 248 247 246 245 244 244 244 245 246 247 249 249 249 249 248 247 247 246 246 246 246 246 245 245 245 247 248 249 251 254 257 259 261 264 266 267 268 267
256 255 255 255 255 254 253 253 251 249 248 247 246 245 245 245 245 244 244 245 246 247 248 248 248 248 248 247 246 246 246 246 246 245 245 245 246 248 250 251 253 255 257 258 261 262 264 265 266
257 256 256 256 255 254 253 252 251 250 248 247 246 245 245 245 245 244 244 244 245 246 247 247 247 247 248 248 247 247 246 246 246 245 245 246 246 248 250 251 252 254 255 257 258 259 261 263 263
256 256 257 257 255 255 253 252 251 250 249 248 247 246 245 245 245 244 244 244 244 245 246 246 246 246 246 246 247 246 246 245 245 245 245 245 246 247 249 251 252 254 255 255 256 257 260 262 262
256 256 256 257 256 255 253 252 251 250 249 248 248 247 246 246 245 245 244 244 244 245 245 245 245 245 245 245 245 245 246 245 245 245 245 245 245 246 248 250 251 253 254 255 255 256 259 261 262
256 256 256 256 256 255 253 251 251 250 249 248 248 248 247 246 245 245 244 244 244 244 244 245 244 244 244 244 245 245 245 245 245 245 245 244 245 245 246 248 249 251 253 254 255 256 258 260 261
256 257 257 256 255 255 253 252 251 250 250 249 248 248 247 246 245 245 244 244 243 243 243 243 244 245 244 244 244 244 244 245 245 245 245 244 244 245 246 247 248 250 252 253 254 255 257 259 261
256 257 257 257 256 254 253 252 252 251 250 250 248 248 247 246 246 246 245 244 243 243 242 242 243 244 244 244 244 244 244 244 244 245 245 244 244 244 245 246 247 249 251 253 254 255 257 259 260
256 256 256 256 256 254 253 253 253 253 252 250 249 248 248 247 247 246 246 245 244 242 242 242 242 243 243 243 243 242 243 243 244 244 245 245 244 244 244 245 247 249 250 252 253 254 256 258 260
255 255 256 256 256 255 254 254 253 253 253 252 250 249 248 248 247 246 246 245 244 243 242 241 241 241 241 241 242 242 242 242 244 244 244 244 245 245 245 244 246 248 249 250 252 253 255 257 258
254 255 255 256 256 256 255 255 255 253 254 253 251 249 248 248 247 247 246 245 244 243 242 241 240 239 239 239 240 240 240 241 243 243 243 243 244 244 244 244 245 247 249 250 251 252 253 255 256
254 255 256 258 258 256 256 255 256 255 254 254 252 250 249 248 247 246 246 244 243 242 241 239 239 238 237 237 238 238 239 239 241 242 242 241 241 242 243 244 245 246 248 249 250 251 252 255 257
254 255 257 258 258 257 257 256 257 257 255 254 253 252 250 248 248 246 246 244 243 241 239 238 237 236 237 236 236 237 238 239 239 240 240 239 239 241 242 243 244 245 247 249 250 251 252 255 257
255 256 257 258 259 258 258 257 257 257 256 254 253 252 251 249 248 247 245 244 241 239 238 238 236 235 235 235 234 236 237 237 238 238 239 240 239 240 242 243 245 247 247 248 250 252 253 255 257
255 256 257 259 260 260 260 259 258 258 256 254 253 252 251 250 249 247 244 242 240 238 238 238 235 234 234 233 233 233 234 234 235 237 238 239 240 240 240 242 245 246 247 249 251 252 254 255 257
256 258 259 259 262 262 260 258 256 256 255 254 254 253 253 251 249 247 244 242 241 240 238 237 235 234 232 230 231 231 232 233 235 237 239 239 239 240 241 243 244 245 246 248 251 252 254 256 257
257 258 260 262 265 264 258 255 256 257 256 255 255 254 254 251 248 246 245 243 241 240 238 237 237 236 233 231 230 231 233 233 234 236 237 238 238 239 241 243 244 244 246 248 251 253 255 257 258
255 256 259 263 267 263 258 254 255 256 256 254 254 254 253 250 246 245 244 243 242 240 238 237 236 236 234 231 230 231 232 233 233 235 236 236 237 239 240 241 243 245 247 250 252 255 256 258 260
255 258 259 261 265 265 260 253 254 259 255 255 256 254 253 250 246 243 241 240 238 237 236 235 235 234 232 231 231 231 231 231 232 233 235 237 237 239 239 239 243 245 248 251 254 256 259 260 260
255 253 255 254 267 268 256 257 247 253 254 263 265 260 254 249 244 240 234 232 232 231 230 231 230 229 228 229 230 231 230 230 232 233 235 236 237 238 239 241 245 247 250 252 254 256 259 260 261
232 224 226 241 262 254 232 229 227 251 257 268 269 259 252 243 238 232 224 223 226 226 225 226 225 225 227 228 230 230 229 230 232 233 234 236 238 240 241 244 246 247 250 252 254 257 259 260 262
200 197 189 205 205 173 179 171 81 341 322 1 312 271 251 228 226 218 216 214 213 215 218 220 222 224 226 227 227 227 228 230 232 234 235 236 237 239 240 244 246 247 250 252 255 257 259 261 263
180 177 165 152 139 128 119 84 81 74 68 70 76 30 147 159 181 179 177 190 198 208 211 211 215 218 221 224 225 226 229 230 230 232 233 235 237 239 242 246 248 248 251 253 254 257 260 264 266
130 139 135 126 120 121 120 104 92 89 76 81 82 88 118 113 127 150 161 167 178 189 192 196 202 210 217 221 223 224 227 228 230 233 235 238 240 242 245 248 249 251 252 255 256 258 261 265 267
109 133 135 125 120 117 113 102 97 91 82 88 78 86 107 105 107 122 131 150 170 180 185 196 204 207 214 218 218 220 225 230 233 237 240 241 242 245 247 250 251 253 255 257 259 261 262 265 268
100 120 130 123 117 111 101 92 101 89 86 90 97 97 108 113 111 119 126 141 154 165 179 192 200 205 210 218 223 229 234 239 240 241 242 245 247 248 249 253 253 256 259 261 264 266 267 269 271
95 106 117 123 115 104 95 89 103 96 92 91 98 101 107 111 115 120 122 125 137 150 169 186 197 208 217 225 229 234 237 239 241 242 245 247 250 253 253 255 257 259 263 265 267 269 270 271 273